UAE229 OMDB-KSEA

Flight info

Callsign UAE229
Flight time N/A
Altitude 29000
Route ANVIX7F/30R ANVIX L223 TARDI N629 IVAKU G216 ALPOR DCT PI B505 PG G325 KALAT/N0506F310 G325 REGET N644 LEMOD/N0500F320 B362 LBA A299 POGON/K0922F320 Y927 AKALI L985 UZLOR L162 URUSU N984 RULEN T822 ALOPU/K0900F330 T793 URIRA/K0896F340 T793 SONIB T533 AGATA DCT 81N030E/N0489F340 82N027E/M084F340 84N020E 86N000E 87N020W 87N040W/M084F360 DCT OVBES/N0496F360 DCT 85N100W 80N114W 75N121W/N0494F370 70N122W 65N123W 60N124W 55N124W DCT ELIDI/N0479F380 DCT KEINN/N0478F390 DCT NUTBE DCT VIXOR MARNR8
Aircraft B77W/H-SDE1E2E3FGHIJ2J3J4J5M1RWXY/LB1D1

Departure

Time 2026-05-07 21:30
Airport Dubai International Airport (OMDB)

Arrival

Time N/A
Airport Seattle–Tacoma International Airport (KSEA)
Time Latitude Longitude Altitude Speed Heading
2026-05-07 20:51 25.24797 55.36439 28 ft 0 kts 209°
2026-05-07 21:17 25.24798 55.36439 28 ft 2 kts 209°
2026-05-07 21:17 25.24821 55.36453 26 ft 4 kts 210°
2026-05-07 21:17 25.24844 55.36468 27 ft 4 kts 211°
2026-05-07 21:17 25.24866 55.36483 26 ft 3 kts 211°
2026-05-07 21:18 25.24885 55.36491 26 ft 4 kts 148°
2026-05-07 21:18 25.24898 55.36470 26 ft 4 kts 111°
2026-05-07 21:18 25.24906 55.36450 25 ft 1 kts 123°
2026-05-07 21:18 25.24908 55.36447 25 ft 1 kts 123°
2026-05-07 21:23 25.24907 55.36448 24 ft 1 kts 123°
2026-05-07 21:23 25.24893 55.36472 27 ft 7 kts 123°
2026-05-07 21:24 25.24854 55.36539 28 ft 11 kts 122°
2026-05-07 21:24 25.24815 55.36614 29 ft 11 kts 113°
2026-05-07 21:24 25.24788 55.36696 30 ft 11 kts 108°
2026-05-07 21:24 25.24768 55.36781 31 ft 11 kts 101°
2026-05-07 21:25 25.24744 55.36863 32 ft 11 kts 123°
2026-05-07 21:25 25.24700 55.36936 33 ft 11 kts 123°
2026-05-07 21:25 25.24660 55.37012 34 ft 11 kts 121°
2026-05-07 21:25 25.24619 55.37087 35 ft 11 kts 121°
2026-05-07 21:26 25.24577 55.37161 36 ft 11 kts 122°
2026-05-07 21:26 25.24534 55.37235 37 ft 11 kts 122°
2026-05-07 21:26 25.24492 55.37310 38 ft 11 kts 120°
2026-05-07 21:26 25.24452 55.37386 39 ft 11 kts 120°
2026-05-07 21:27 25.24411 55.37464 40 ft 13 kts 120°
2026-05-07 21:27 25.24363 55.37557 41 ft 15 kts 120°
2026-05-07 21:27 25.24305 55.37665 43 ft 17 kts 123°
2026-05-07 21:27 25.24296 55.37783 43 ft 18 kts 47°
2026-05-07 21:28 25.24426 55.37890 28 ft 28 kts 34°
2026-05-07 21:28 25.24547 55.37980 30 ft 20 kts 32°
2026-05-07 21:28 25.24661 55.38063 39 ft 20 kts 34°
2026-05-07 21:28 25.24767 55.38086 40 ft 14 kts 322°
2026-05-07 21:29 25.24824 55.37984 37 ft 24 kts 301°
2026-05-07 21:29 25.24993 55.37682 35 ft 80 kts 302°
2026-05-07 21:29 25.25416 55.36922 29 ft 151 kts 302°
2026-05-07 21:29 25.26079 55.35727 89 ft 204 kts 300°
2026-05-07 21:30 25.26850 55.34387 672 ft 210 kts 301°
2026-05-07 21:30 25.27590 55.32998 1356 ft 208 kts 297°
2026-05-07 21:30 25.28282 55.31633 1973 ft 202 kts 301°
2026-05-07 21:30 25.29037 55.30314 2268 ft 205 kts 297°
2026-05-07 21:31 25.29311 55.28801 2393 ft 208 kts 257°
2026-05-07 21:31 25.28710 55.27341 2580 ft 214 kts 245°
2026-05-07 21:31 25.28039 55.25844 2775 ft 221 kts 246°
2026-05-07 21:31 25.27357 55.24257 2938 ft 237 kts 246°
2026-05-07 21:32 25.26634 55.22564 3165 ft 249 kts 246°
2026-05-07 21:32 25.25883 55.20808 3563 ft 255 kts 246°
2026-05-07 21:32 25.25122 55.19031 4075 ft 255 kts 243°
2026-05-07 21:32 25.24027 55.17524 4550 ft 254 kts 214°
2026-05-07 21:33 25.22388 55.16805 4966 ft 258 kts 189°
2026-05-07 21:33 25.20580 55.16785 5286 ft 264 kts 176°
2026-05-07 21:33 25.18803 55.17357 5514 ft 273 kts 145°
2026-05-07 21:33 25.17524 55.18926 5723 ft 283 kts 117°
2026-05-07 21:34 25.16638 55.20895 6009 ft 290 kts 117°
2026-05-07 21:34 25.15722 55.22855 6494 ft 292 kts 118°
2026-05-07 21:34 25.14775 55.24841 7007 ft 293 kts 118°
2026-05-07 21:34 25.13820 55.26835 7519 ft 295 kts 118°
2026-05-07 21:35 25.12855 55.28848 8004 ft 298 kts 118°
2026-05-07 21:35 25.11882 55.30874 8511 ft 300 kts 118°
2026-05-07 21:35 25.10901 55.32912 8969 ft 302 kts 118°
2026-05-07 21:35 25.09975 55.35002 9473 ft 304 kts 115°
2026-05-07 21:36 25.09112 55.37137 9934 ft 306 kts 115°
2026-05-07 21:36 25.08244 55.39283 10438 ft 306 kts 115°
2026-05-07 21:36 25.07370 55.41419 10953 ft 305 kts 115°
2026-05-07 21:36 25.06518 55.43581 11280 ft 314 kts 113°
2026-05-07 21:37 25.05648 55.45857 11396 ft 330 kts 113°
2026-05-07 21:37 25.04733 55.48257 11536 ft 346 kts 113°
2026-05-07 21:37 25.03775 55.50755 11673 ft 362 kts 113°
2026-05-07 21:37 25.02781 55.53335 11826 ft 377 kts 113°
2026-05-07 21:38 25.01725 55.56019 12172 ft 386 kts 116°
2026-05-07 21:38 25.00426 55.58626 12652 ft 390 kts 121°
2026-05-07 21:38 24.98983 55.61155 13318 ft 389 kts 122°
2026-05-07 21:38 24.97541 55.63676 13957 ft 388 kts 121°
2026-05-07 21:39 24.96128 55.66229 14427 ft 392 kts 120°
2026-05-07 21:39 24.94721 55.68824 14835 ft 397 kts 120°
2026-05-07 21:39 24.93252 55.71416 15291 ft 401 kts 124°
2026-05-07 21:39 24.91614 55.73918 15763 ft 404 kts 126°
2026-05-07 21:40 24.89913 55.76394 16232 ft 407 kts 127°
2026-05-07 21:40 24.88203 55.78894 16690 ft 410 kts 126°
2026-05-07 21:40 24.86500 55.81430 17123 ft 414 kts 126°
2026-05-07 21:40 24.84794 55.83999 17616 ft 417 kts 126°
2026-05-07 21:41 24.83075 55.86583 18076 ft 420 kts 126°
2026-05-07 21:41 24.81343 55.89151 18460 ft 423 kts 126°
2026-05-07 21:41 24.79582 55.91755 18870 ft 426 kts 126°
2026-05-07 21:41 24.77783 55.94358 19267 ft 427 kts 130°
2026-05-07 21:42 24.75687 55.96713 19589 ft 432 kts 138°
2026-05-07 21:42 24.73422 55.98887 19998 ft 434 kts 139°
2026-05-07 21:42 24.71155 56.01090 20384 ft 436 kts 138°
2026-05-07 21:42 24.68911 56.03360 20770 ft 439 kts 137°
2026-05-07 21:43 24.66700 56.05636 21089 ft 443 kts 137°
2026-05-07 21:43 24.64443 56.07958 21446 ft 446 kts 137°
2026-05-07 21:43 24.62135 56.10322 21769 ft 449 kts 137°
2026-05-07 21:43 24.59865 56.12644 22143 ft 452 kts 137°
2026-05-07 21:44 24.57572 56.15013 22497 ft 454 kts 136°
2026-05-07 21:44 24.55388 56.17541 22842 ft 457 kts 131°
2026-05-07 21:44 24.53311 56.20202 23179 ft 460 kts 131°
2026-05-07 21:44 24.51241 56.22894 23476 ft 463 kts 131°
2026-05-07 21:45 24.49156 56.25599 23732 ft 465 kts 131°
2026-05-07 21:45 24.47047 56.28315 23998 ft 468 kts 131°
2026-05-07 21:45 24.44927 56.31026 24241 ft 470 kts 132°
2026-05-07 21:45 24.42789 56.33748 24497 ft 472 kts 132°
2026-05-07 21:46 24.40634 56.36484 24740 ft 474 kts 132°
2026-05-07 21:46 24.38496 56.39196 24968 ft 477 kts 132°
2026-05-07 21:46 24.36321 56.41955 25195 ft 480 kts 132°
2026-05-07 21:46 24.34130 56.44736 25428 ft 482 kts 132°
2026-05-07 21:47 24.31932 56.47523 25671 ft 484 kts 132°
2026-05-07 21:47 24.29739 56.50335 25918 ft 486 kts 130°
2026-05-07 21:47 24.27699 56.53306 26150 ft 489 kts 127°
2026-05-07 21:47 24.25702 56.56342 26368 ft 491 kts 127°
2026-05-07 21:48 24.23702 56.59393 26595 ft 494 kts 127°
2026-05-07 21:48 24.21686 56.62458 26839 ft 496 kts 127°
2026-05-07 21:48 24.19686 56.65486 27043 ft 498 kts 127°
2026-05-07 21:48 24.17647 56.68560 27281 ft 500 kts 127°
2026-05-07 21:49 24.15586 56.71660 27518 ft 502 kts 127°
2026-05-07 21:49 24.13519 56.74764 27713 ft 504 kts 127°
2026-05-07 21:49 24.11452 56.77868 27930 ft 506 kts 127°
2026-05-07 21:49 24.09373 56.80988 28130 ft 508 kts 127°
2026-05-07 21:50 24.07285 56.84122 28337 ft 510 kts 127°
2026-05-07 21:50 24.05192 56.87261 28503 ft 512 kts 127°
2026-05-07 21:50 24.03112 56.90376 28675 ft 514 kts 127°
2026-05-07 21:50 24.00988 56.93538 28730 ft 517 kts 128°
2026-05-07 21:51 23.96706 56.99898 28783 ft 523 kts 128°
2026-05-07 21:51 23.92383 57.06321 28772 ft 524 kts 128°
2026-05-07 21:52 23.88079 57.12710 28791 ft 523 kts 127°
2026-05-07 21:52 23.83773 57.19113 28773 ft 522 kts 127°
2026-05-07 21:53 23.79499 57.25467 28794 ft 521 kts 127°
2026-05-07 21:53 23.75192 57.31862 28778 ft 521 kts 127°
2026-05-07 21:54 23.70895 57.38202 28784 ft 521 kts 128°
2026-05-07 21:54 23.66388 57.44419 28793 ft 521 kts 130°
2026-05-07 21:55 23.61850 57.50583 28793 ft 520 kts 129°
2026-05-07 21:55 23.57354 57.56766 28822 ft 520 kts 129°
2026-05-07 21:56 23.52898 57.62907 28807 ft 519 kts 129°
2026-05-07 21:56 23.50952 57.66216 28800 ft 519 kts 114°
2026-05-07 21:56 23.49909 57.69977 28848 ft 519 kts 98°
2026-05-07 21:57 23.49731 57.73865 28819 ft 520 kts 84°
2026-05-07 21:57 23.50351 57.77734 28833 ft 518 kts 77°
2026-05-07 21:57 23.51889 57.85432 28811 ft 523 kts 78°
2026-05-07 21:58 23.53336 57.93229 28791 ft 527 kts 78°
2026-05-07 21:58 23.54726 58.01093 28785 ft 528 kts 79°
2026-05-07 21:59 23.56102 58.08938 28755 ft 526 kts 79°
2026-05-07 21:59 23.57477 58.16753 28721 ft 524 kts 79°
2026-05-07 22:00 23.58848 58.24553 28711 ft 522 kts 79°
2026-05-07 22:00 23.60178 58.32289 28718 ft 521 kts 79°
2026-05-07 22:01 23.61477 58.40070 28724 ft 521 kts 79°
2026-05-07 22:01 23.62774 58.47852 28731 ft 521 kts 79°
2026-05-07 22:02 23.64074 58.55642 28720 ft 522 kts 79°
2026-05-07 22:02 23.65374 58.63437 28725 ft 523 kts 79°
2026-05-07 22:03 23.66670 58.71247 28724 ft 523 kts 79°